EW6655 Weather Reports


time (UTC)temp
F
wind
direction
speed
knots
gust
knots
rain 1hr
in
rain 24hr
in
rain mn
in
humidity
%
barometer
mb
20260506031547 46 24 0.9 5.2 0.02 0.47 0.06 96 1004.7
20260506030043 46 360 0.9 3.5 0.02 0.46 0.06 96 1004.8
20260506024543 46 360 0.9 2.6 0.00 0.46 0.04 96 1004.9
20260506023042 46 36 1.7 3.5 0.01 0.46 0.04 96 1005.0
20260506021541 46 355 1.7 4.3 0.01 0.46 0.04 96 1004.9
20260506020038 46 5 2.6 4.3 0.02 0.46 0.04 96 1005.0
20260506014546 46 41 0.9 4.3 0.02 0.47 0.04 96 1005.2
20260506013038 46 30 0.9 4.3 0.01 0.46 0.03 96 1005.3
20260506011539 46 29 1.7 4.3 0.02 0.46 0.03 96 1005.4
20260506010033 46 38 0.9 4.3 0.01 0.46 0.02 96 1005.4
20260506004539 46 13 0.0 4.3 0.01 0.46 0.02 96 1005.5
20260506003030 46 11 1.7 4.3 0.01 0.46 0.02 96 1005.7
20260506001528 46 5 0.9 3.5 0.00 0.45 0.02 96 1005.8
20260506000035 46 36 1.7 4.3 0.00 0.45 0.02 96 1005.9
20260505234524 46 74 0.9 4.3 0.00 0.45 0.02 96 1006.1
20260505233022 46 55 0.0 2.6 0.01 0.45 0.02 96 1006.2
20260505231523 46 55 0.9 3.5 0.01 0.45 0.02 96 1006.2
20260505230020 46 22 0.0 2.6 0.02 0.45 0.02 96 1006.2
20260505224532 46 32 2.6 4.3 0.02 0.45 0.02 96 1006.3
20260505223027 47 44 0.9 3.5 0.02 0.44 0.01 96 1006.4
20260505221518 47 24 0.9 3.5 0.03 0.44 0.01 96 1006.4
20260505220027 47 32 0.9 3.5 0.03 0.43 0.00 96 1006.4
20260505214521 47 17 0.9 3.5 0.03 0.43 0.43 96 1006.5
20260505213015 47 23 1.7 3.5 0.05 0.42 0.42 96 1006.6
20260505211513 47 25 0.9 2.6 0.07 0.41 0.41 96 1006.7
20260505210012 47 342 1.7 2.6 0.08 0.40 0.40 96 1006.7
20260505204520 47 21 0.9 2.6 0.08 0.39 0.39 96 1006.8
20260505203011 47 19 1.7 3.5 0.06 0.37 0.37 96 1006.9
20260505201510 47 5 0.9 1.7 0.04 0.34 0.34 96 1006.9
20260505200010 47 5 1.7 3.5 0.03 0.32 0.32 96 1006.7
20260505194509 48 56 1.7 3.5 0.04 0.31 0.31 95 1006.7
20260505193025 48 55 0.9 4.3 0.05 0.31 0.31 95 1006.5
20260505191506 48 9 2.6 5.2 0.06 0.30 0.30 95 1006.5
20260505190011 48 26 1.7 4.3 0.06 0.28 0.28 95 1006.5
20260505184504 48 20 1.7 4.3 0.05 0.28 0.28 95 1006.4
20260505183004 49 25 0.9 3.5 0.05 0.26 0.26 95 1006.4
20260505181501 49 35 1.7 3.5 0.04 0.24 0.24 95 1006.5
20260505180059 49 26 0.9 2.6 0.06 0.24 0.24 95 1006.4
20260505174558 49 18 1.7 4.3 0.06 0.24 0.23 95 1006.4
20260505173056 49 39 0.0 3.5 0.06 0.22 0.21 95 1006.5
20260505171555 50 23 1.7 4.3 0.09 0.21 0.20 95 1006.5
20260505170104 50 61 2.6 5.2 0.09 0.19 0.18 95 1006.6
20260505164551 50 28 1.7 5.2 0.10 0.19 0.17 95 1006.7
20260505163057 50 39 0.9 4.3 0.09 0.17 0.15 95 1006.8
20260505161652 51 61 2.6 4.3 0.06 0.15 0.13 95 1006.8
20260505153102 51 64 1.7 7.0 0.00 0.09 0.06 95 1006.9
20260505151547 52 20 3.5 6.1 0.00 0.09 0.06 94 1006.8
20260505150106 52 360 3.5 5.2 0.00 0.09 0.06 94 1006.8
20260505124536 55 90 1.7 4.3 0.00 0.19 0.06 88 1007.5
20260505123049 56 65 0.9 3.5 0.00 0.19 0.06 88 1007.6
20260505121535 55 106 0.9 3.5 0.00 0.19 0.06 87 1007.6
20260505120043 55 19 1.7 3.5 0.00 0.19 0.06 89 1007.7
20260505114539 55 19 0.9 3.5 0.00 0.19 0.06 90 1007.7
20260505113128 55 24 0.9 2.6 0.00 0.19 0.06 90 1007.9
20260505111525 54 24 0.9 2.6 0.00 0.19 0.06 90 1008.0
20260505101519 54 27 0.0 0.0 0.01 0.19 0.06 94 1008.3
20260505100016 53 27 0.0 0.9 0.02 0.19 0.06 94 1008.4
20260505094514 53 27 0.0 1.7 0.02 0.19 0.06 93 1008.4
20260505093014 53 27 0.0 2.6 0.03 0.19 0.06 94 1008.4
20260505091513 53 27 0.0 2.6 0.02 0.17 0.05 93 1008.5
20260505090012 53 188 0.0 1.7 0.02 0.17 0.05 93 1008.6
20260505084514 53 188 0.0 1.7 0.01 0.17 0.04 93 1008.6
20260505083013 53 188 0.0 1.7 0.00 0.16 0.03 93 1008.6
20260505081512 53 188 0.0 1.7 0.00 0.16 0.03 93 1008.5
20260505080008 53 188 0.0 0.0 0.00 0.16 0.03 94 1008.6
20260505074506 53 188 0.0 0.0 0.00 0.16 0.03 94 1008.6
20260505073008 52 188 0.0 0.9 0.00 0.16 0.03 95 1008.7
20260505071503 52 188 0.0 0.0 0.00 0.16 0.03 95 1008.7
20260505070002 52 188 0.0 2.6 0.00 0.16 0.03 95 1008.8
20260505064600 52 188 0.0 1.7 0.00 0.16 0.03 95 1008.8
20260505063101 51 188 0.0 0.0 0.00 0.16 0.03 95 1008.9
20260505061602 51 188 0.0 0.0 0.00 0.16 0.03 95 1008.9
20260505060056 51 188 0.0 0.0 0.00 0.16 0.03 95 1009.0
20260505054558 51 188 0.0 0.0 0.00 0.16 0.03 95 1008.9
20260505053054 50 188 0.0 0.0 0.00 0.16 0.03 95 1008.9
20260505051554 50 188 0.0 0.9 0.00 0.16 0.03 95 1008.9
20260505050124 50 188 0.0 0.0 0.00 0.16 0.03 95 1008.8
20260505041603 50 188 0.0 0.0 0.01 0.16 0.03 95 1008.9
20260505040058 50 188 0.0 0.0 0.01 0.16 0.03 95 1008.9
20260505034549 50 188 0.0 0.0 0.01 0.16 0.03 95 1009.0
20260505033049 50 188 0.0 0.0 0.00 0.15 0.02 95 1009.1